Weather in Ma'an

Jordan     30°12′26″N   35°43′18″E
В апреле 2022 года жителям России запретили посещать сайт meteo.paraplan.net по решению Генеральной прокуратуры. Аудитория сайта уменьшилась в 10 раз. Владельцы сайта не видят смысла в поддержке погодного сервера в таких условиях. Сайт будет закрыт в октябре.
temp.,
°C
wind,
m/s
gust,
m/s
humid.,
%
clouds,
%
prec.,
mm/h
press.,
hPa
HPBL,
m
25 september, sun
sun2500:00+24nnw33330 0.0 101625
03:00+22n11390 0.0 101511
06:00+21n11400 0.0 101611
09:00+24ese23300 0.0 1017342
12:00+29se33230 0.0 1016921
15:00+32ese45183 0.0 10132713
18:00+30nnw55179 0.0 10141017
21:00+26nnw22250 0.0 101623
26 september, mon
mon2600:00+24nnw23290 0.0 101617
03:00+22ese01350 0.0 101611
06:00+21sw11380 0.0 101611
09:00+26s23290 0.0 1016303
12:00+30sse45200 0.0 10151773
15:00+32wnw76130 0.0 10133400
18:00+29nw56170 0.0 1014448
21:00+26wnw46240 0.0 101572
27 september, tue
tue2700:00+25wnw44240 0.0 101532
03:00+23wnw45280 0.0 101543
06:00+21sw11320 0.0 101511
09:00+25sse11240 0.0 1016266
12:00+30se14150 0.0 10142088
15:00+32wnw67120 0.0 10123232
18:00+29nw56160 0.0 1013426
21:00+26nw45220 0.0 101470
28 september, wed
wed2800:00+24wnw33230 0.0 101417
03:00+23w11250 0.0 101411
06:00+22w22260 0.0 101411
09:00+26s23180 0.0 1015311
12:00+31w25130 0.0 10122859
15:00+31wnw77130 0.0 10112336
18:00+27nw67220 0.0 1012659
21:00+23wnw57360 0.0 1014160
29 september, thu
thu2900:00+22wnw58330 0.0 1014110
03:00+22wnw45240 0.0 101354
06:00+21nw44340 0.0 101339
09:00+25n23300 0.0 1014390
12:00+28ene33230 0.0 10131320
15:00+31nne34190 0.0 10102286
18:00+28nnw77260 0.0 1012768
21:00+24nw57400 0.0 1014196